Regional Weather Roundup
Issued by NWS Upton, NY

Current Version | Previous Version | Text Only | Print | Product List | Glossary On
Versions: 1 2 3 4 5 6 7 8 9 10 11 12 13 14 15 16 17 18 19 20 21 22 23 24 25 26 27 28 29 30 31 32 33 34 35 36 37 38 39 40 41 42 43 44 45 46 47 48 49 50
000 ASUS41 KOKX 191605 RWROKX REGIONAL WEATHER ROUNDUP NATIONAL WEATHER SERVICE NEW YORK NY 1200 PM EDT FRI SEP 19 2014 NOTE: "FAIR" INDICATES FEW OR NO CLOUDS BELOW 12,000 FEET WITH NO SIGNIFICANT WEATHER AND/OR OBSTRUCTIONS TO VISIBILITY. NYZ071-072-176-178-NJZ106-104-191700- NEW YORK CITY METRO AREA CITY SKY/WX TMP DP RH WIND PRES REMARKS CENTRAL PARK MOSUNNY 62 43 49 E8 30.37S LAGUARDIA APRT MOSUNNY 61 44 53 NE18 30.34F KENNEDY INTL MOSUNNY 65 43 44 NE10 30.35S NEWARK/LIBERTY PTSUNNY 62 44 51 NE12 30.34S BRNX BOT. GARD N/A 59 41 51 N12 30.37S TETERBORO PTSUNNY 62 39 42 E6 30.34S $$ NYZ177-179-078>081-191700- LONG ISLAND NEW YORK CITY SKY/WX TMP DP RH WIND PRES REMARKS FARMINGDALE SUNNY 63 44 50 NE13 30.34S ISLIP MOSUNNY 62 44 51 NE9G16 30.33S SHIRLEY MOSUNNY 62 43 49 VRB7 30.35S WESTHAMPTON SUNNY 62 42 47 NE12 30.36S MONTAUK POINT N/A 59 42 53 NE9G18 30.37R $$ NYZ052-065-067-191700- HUDSON VALLEY CITY SKY/WX TMP DP RH WIND PRES REMARKS WHITE PLAINS MOSUNNY 58 38 47 VRB3 30.34F NEWBURGH MOSUNNY 57 43 58 E12 30.37S MONTGOMERY SUNNY 59 40 49 NE8 30.35F POUGHKEEPSIE SUNNY 59 39 47 VRB5 30.35F ALBANY MOSUNNY 53 34 48 VRB7 30.40S $$ NJZ001-105-106-008-010-013-015-019>022-104-191700- NEW JERSEY CITY SKY/WX TMP DP RH WIND PRES REMARKS NEWARK/LIBERTY PTSUNNY 62 44 51 NE12 30.34S TETERBORO PTSUNNY 62 39 42 E6 30.34S CALDWELL MOSUNNY 60 39 45 VRB5 30.35S MORRISTOWN MOSUNNY 63 43 48 NE6G12 30.36S SOMERVILLE MOSUNNY 64 43 46 VRB3 30.32 LINDEN FAIR 67 46 47 E9G16 30.36R SUSSEX SUNNY 60 43 53 CALM 30.34F ANDOVER N/A 60 45 57 N5 30.34F TRENTON SUNNY 63 45 51 E10 30.32R MILLVILLE MOSUNNY 70 56 61 E16 30.28R ATLANTIC CITY CLOUDY 66 55 67 NE17G25 30.29R WRIGHTSTOWN PTSUNNY 64 51 62 NE13 30.30R TOMS RIVER CLOUDY 63 50 63 E9 30.33R BELMAR CLOUDY 61 46 59 NE13 30.33R $$ PAZ047>061-062-071-191700- EASTERN PENNSYLVANIA CITY SKY/WX TMP DP RH WIND PRES REMARKS PHILADELPHIA CLOUDY 65 52 62 NE12 30.32R ALLENTOWN MOSUNNY 62 46 55 E6 30.33S SCRANTON SUNNY 60 42 51 N5 30.32F $$ CTZ002-004>006-009-010-012-RIZ004-006-007-MAZ004-011-015-191700- SOUTHERN NEW ENGLAND IN CT CITY SKY/WX TMP DP RH WIND PRES REMARKS BRADLEY INTL MOSUNNY 58 34 40 N8 30.37S HARTFORD SUNNY 57 35 43 VRB5 30.37F DANBURY SUNNY 56 38 50 SE7 30.37S WTRBRY/OXFORD NOT AVBL BRIDGEPORT SUNNY 61 40 45 E12 30.37R MERIDEN SUNNY 59 37 44 VRB5 30.37S NEW HAVEN MOSUNNY 61 38 42 NE8 30.36S CHESTER FAIR 55 36 47 NE6 30.37S GROTON SUNNY 60 37 42 N10 30.35S WILLIMANTIC SUNNY 57 34 41 NE7 30.37S IN RI CITY SKY/WX TMP DP RH WIND PRES REMARKS PROVIDENCE MOSUNNY 58 33 39 N9 30.38S BLOCK ISLAND MOSUNNY 57 39 51 NE12G17 30.36R WESTERLY SUNNY 60 35 39 NE9 30.37R IN MA CITY SKY/WX TMP DP RH WIND PRES REMARKS BOSTON MOSUNNY 56 35 45 NE10 30.40R WORCESTER SUNNY 50 30 46 NE7 30.37F WESTFIELD SUNNY 56 29 35 N10G16 30.38S PROVINCETOWN MOSUNNY 55 36 47 NE15 30.38S NANTUCKET SUNNY 59 39 47 N20G30 30.34R $$ ANZ330-335-338-340-345-350-353-355-191700- COASTAL MARINE OBSERVATIONS STATION/POSITION TIME SKY/WX TEMP WIND PRES VSBY WAVE AIR SEA DIR/SP/G HT/PER (UTC) (F) (DEG/KT/KT) (MB) (MI) (FT/S) NY HARB ENTRANCE 1600 60 70 60/ 16/ 17 1027.3 4/ 6 4S FIRE IS 1600 70 N/A 4/ 5 23SW MTP 1600 N/A 5/ 6 HUDSON CANYON 1600 66 72 50/ 21/ 25 1024.4 6/ 6 EXECUTION ROCKS 1600 59 70 60/ 16/ 21 N/A WESTERN LI SOUND 1600 57 70/ 14/ 17 N/A 2/ 4 CENTRAL LI SOUND 1500 55 70 60/ 10/ 14 N/A 2/ 4 EASTERN LI SOUND 1500 56 68 50/ 8/ 14 N/A ROBBINS REEF 1600 58 40/ 12/ 15 1026.1 $$ >>>>>>>>>>>>>>>>>>>>>>>>>>>> KEY <<<<<<<<<<<<<<<<<<<<<<<<<<< > < > SKY/WX - SKY CONDITION/PRESENT WEATHER < > TMP - TEMPERATURE IN FAHRENHEIT < > DP - DEWPOINT IN FAHRENHEIT < > RH - RELATIVE HUMIDITY IN PERCENT < > WIND - DIRECTION AND SPEED IN MPH < > PRES - MEAN SEA LEVEL PRESSURE IN INCHES OF HG < > WCI - WIND CHILL INDEX < > VSB - VISIBILITY IN MILES < > HX - HEAT INDEX < > TC - TEMPERATURE IN CELSIUS < > VRB - VARIABLE WIND DIRECTION < > < >>>>>>>>>>>>>>>>>>>>>>>>>>>> KEY <<<<<<<<<<<<<<<<<<<<<<<<<<<

USA.gov is the U.S. government's official web portal to all federal, state and local government web resources and services.